{"data":{"norad_id":61667,"epoch":"2026-09-21T06:59:24.232416Z","epoch_age_seconds":123631,"freshness":"FRESH","line1":"1 61667U 24193G   26264.29125269  .00000781  00000+0  34266-4 0  9991","line2":"2 61667  53.1619 261.7848 0001388  80.5871 279.5288 15.34395727106484","mean_motion":15.34395727,"eccentricity":0.0001388,"inclination_deg":53.1619,"raan_deg":261.7848,"arg_perigee_deg":80.5871,"mean_anomaly_deg":279.5288,"bstar":3.4266e-5,"rev_number":10648,"period_min":93.848019429475,"perigee_km":461.76643010493,"apogee_km":463.66545088121,"semimajor_km":6840.8529404931,"source":"CELESTRAK","updated_at":"2026-09-22T09:00:49.401036Z"}}